Flag for Zimbabwe Weather past 2 weeks in Harare, Zimbabwe

Now
50 °F

Clear.


Feels Like: 48 °F
Forecast: 48 / 79 °F
Wind: 5 mph from East

Location: Harare Kutsaga Airport

Current Time: Sep 23, 2014 at 5:30:43 AM

Latest Report: Sep 23, 2014 at 5:00 AM


Visibility: 10 mi

Pressure: 30.30 "Hg

Humidity: 100%

Dew point: 50 °F

Location of HarareLocation

Historic Weather in Harare — Graph

°F

Harare temperature yesterday

Maximum temperature yesterday: 79 °F (at 3:00 PM)
Minimum temperature yesterday: 54 °F (at 2:00 AM)
Average temperature yesterday: 65 °F

Past Weeks' High & Low Weather Summary

 TemperatureHumidityPressure
High91 °F (Sep 19, 3:00 PM)100% (Sep 22, 3:00 AM)30.42 "Hg (Sep 22, 3:00 AM)
Low52 °F (Sep 8, 5:00 AM)15% (Sep 19, 3:00 PM)30.07 "Hg (Sep 18, 3:00 PM)
Average70 °F45%30.25 "Hg
* Reported Sep 8 5:00 AM — Sep 23 3:00 AM, Harare, Weather by CustomWeather, © 2014

Note: Actual official high and low records may vary slightly from our data, if they occured in-between our weather recording intervals... More about our weather records

Advertising

Harare weather history for previous 24 hours

 ConditionsComfort  
Time TempWeatherWind HumidityBarometerVisibility
3:00 AM
Sep 23
54 °FClear.7 mph94%30.30 "Hg10 mi
2:00 AM54 °FClear.7 mph94%30.30 "Hg10 mi
12:00 AM57 °FClear.6 mph82%30.33 "Hg10 mi
11:00 PM
Sep 22
59 °FClear.7 mph77%30.33 "Hg10 mi
10:00 PM61 °FPassing clouds.8 mph68%30.33 "HgN/A
9:00 PM63 °FClear.12 mph68%30.33 "Hg10 mi
7:00 PM68 °FClear.13 mph56%30.30 "Hg10 mi
6:00 PM70 °FPassing clouds.12 mph50%30.27 "HgN/A
5:00 PM75 °FPassing clouds.9 mph36%30.24 "HgN/A
4:00 PM77 °FPassing clouds.10 mph34%30.24 "HgN/A
3:00 PM79 °FPassing clouds.10 mph34%30.24 "HgN/A
2:00 PM75 °FPassing clouds.15 mph39%30.27 "HgN/A
1:00 PM75 °FPassing clouds.10 mph41%30.30 "HgN/A
12:00 PM77 °FPassing clouds.12 mph42%30.33 "HgN/A
9:00 AM68 °FScattered clouds.10 mph64%30.39 "HgN/A
8:00 AM63 °FPassing clouds.10 mph73%30.39 "HgN/A
7:00 AM57 °FSunny.8 mph88%30.36 "Hg10 mi
5:00 AM54 °FClear.7 mph100%30.33 "Hg10 mi
Weather by CustomWeather, © 2014

See weather overviewHow to use our weather pages